Change the Weather History Date:

Wednesday, April 18, 2012

  Actual Average Record
Temperature  
Mean Temperature 84 °F -  
Max Temperature 91 °F 86 °F 91 °F (2012)
Min Temperature 77 °F 80 °F 75 °F (2011)
Cooling Degree Days 19    
Growing Degree Days 34 (Base 50)    
Moisture  
Dew Point 73 °F    
Average Humidity 73    
Maximum Humidity 89    
Minimum Humidity 55    
Precipitation  
Precipitation 0.00 in - - ()
Sea Level Pressure  
Sea Level Pressure 29.91 in    
Wind  
Wind Speed 10 mph ()    
Max Wind Speed 15 mph    
Max Gust Speed -    
Visibility 7.1 miles    
Events      
Averages and records for this station are not official NWS values.
T = Trace of Precipitation, MM = Missing Value Source: Averaged Metar Reports

Daily Weather History Graph

Daily Weather History Graph

Search for Another Location

Airport or City:

Trip Planner

Search our weather history database for the weather conditions in past years. The results will help you decide how hot, cold, wet, or windy it might be!

Date:

Astronomy

Apr. 18, 2012 Rise Set
Actual Time 6:19 AM AST 6:45 PM AST
Civil Twilight 5:57 AM AST 7:07 PM AST
Nautical Twilight 5:32 AM AST 7:32 PM AST
Astronomical Twilight 5:07 AM AST 7:57 PM AST
Moon 4:21 AM AST (4/18) 4:49 PM AST (4/18)
Length of Visible Light 13h 09m
Length of Day
12h 26m
Waning Crescent, 6% of the Moon is Illuminated
Apr 18
Waning Crescent
Apr 21
New
Apr 29
First Quarter
May 5
Full
May 12
Last Quarter

Hourly Weather History & Observations

Time (AST) Temp. Heat Index Dew Point Humidity Pressure Visibility Wind Dir Wind Speed Gust Speed Precip Events Conditions
12:00 AM 78.8 °F - 71.6 °F 78% 29.95 in - North - - N/A   Partly Cloudy
1:00 AM 78.8 °F - 71.6 °F 78% 29.92 in - North - - N/A   Partly Cloudy
2:00 AM 79 °F - 72 °F 75%  in - Calm Calm - -   Clear
2:00 AM 78.8 °F - 73.4 °F 83% 29.92 in - North - - N/A   Unknown
3:00 AM 78.8 °F - 71.6 °F 78% 29.89 in - North - - N/A   Unknown
4:00 AM 77.0 °F - 73.4 °F 89% 29.89 in - North - - N/A   Unknown
5:00 AM 78 °F - 72 °F 78%  in - Calm Calm - -   Clear
5:00 AM 77.0 °F - 73.4 °F 89% 29.89 in - North - - N/A   Unknown
6:00 AM 77.0 °F - 73.4 °F 89% 29.92 in - North - - N/A   Unknown
7:00 AM 78.8 °F - 73.4 °F 83% 29.92 in 6.2 mi East 5.8 mph - N/A   Partly Cloudy
8:00 AM 82.4 °F 88.2 °F 73.4 °F 74% 29.95 in 6.2 mi East 12.7 mph - N/A   Partly Cloudy
9:00 AM 84.2 °F 90.9 °F 73.4 °F 70% 29.95 in 6.2 mi East 13.8 mph - N/A   Partly Cloudy
11:00 AM 86 °F - 73 °F 57% 29.97 in 22 mi ESE 12.7 mph - -   Partly Cloudy
11:00 AM 86.0 °F 93.4 °F 73.4 °F 66% 29.95 in 6.2 mi ESE 12.7 mph - N/A   Scattered Clouds
12:00 PM 86.0 °F 93.4 °F 73.4 °F 66% 29.95 in 6.2 mi ESE 13.8 mph - N/A   Scattered Clouds
1:00 PM 86.0 °F 93.4 °F 73.4 °F 66% 29.95 in 6.2 mi East 12.7 mph - N/A   Scattered Clouds
2:00 PM 87 °F - 73 °F 55%  in - Calm Calm - -   Clear
2:00 PM 86.0 °F 93.4 °F 73.4 °F 66% 29.89 in - North - - N/A   Unknown
3:00 PM 86.0 °F 93.4 °F 73.4 °F 66% 29.89 in 6.2 mi ESE 13.8 mph - N/A   Scattered Clouds
4:00 PM 84.2 °F 88.4 °F 69.8 °F 62% 29.86 in 6.2 mi ESE 15.0 mph - N/A   Scattered Clouds
5:00 PM 87 °F - 75 °F 60% 29.86 in 22 mi East 13.8 mph - -   Partly Cloudy
5:00 PM 86.0 °F 93.4 °F 73.4 °F 66% 29.86 in 6.2 mi East 13.8 mph - N/A   Scattered Clouds
6:00 PM 82.4 °F 88.2 °F 73.4 °F 74% 29.86 in - North - - N/A   Unknown
7:00 PM 80.6 °F 84.6 °F 71.6 °F 74% 29.86 in - North - - N/A   Unknown
8:00 PM 82 °F - 73 °F 68% 29.90 in 16 mi East 10.4 mph - -   Scattered Clouds
8:00 PM 80.6 °F 85.4 °F 73.4 °F 79% 29.89 in 6.2 mi East 9.2 mph - N/A   Scattered Clouds
9:00 PM 80.6 °F 85.4 °F 73.4 °F 79% 29.92 in - North - - N/A   Unknown
10:00 PM 80.6 °F 85.4 °F 73.4 °F 79% 29.92 in - North - - N/A   Unknown
11:00 PM 80.6 °F 85.4 °F 73.4 °F 79% 29.95 in - North - - N/A   Unknown